Flag for Netherlands Weather past 2 weeks in 's-Hertogenbosch, Netherlands

Now
64 °F

Mostly cloudy.


Feels Like: 64 °F
Forecast: 50 / 65 °F
Wind: 10 mph from West

Location: Volkel

Current Time: Sep 1, 2015 at 2:52:01 AM

Latest Report: Sep 1, 2015 at 2:25 AM


Visibility: N/A

Pressure: 29.83 "Hg

Humidity: 88%

Dew point: 61 °F

Location of 's-HertogenboschLocation

Historic Weather in 's-Hertogenbosch — Graph

°F

's-Hertogenbosch temperature yesterday

Maximum temperature yesterday: 86 °F (at 3:25 PM)
Minimum temperature yesterday: 63 °F (at 6:55 AM)
Average temperature yesterday: 72 °F

Past Weeks' High & Low Weather Summary

 TemperatureHumidityPressure
High86 °F (Aug 31, 3:25 PM)100% (Aug 17, 2:25 AM)30.24 "Hg (Aug 17, 2:25 AM)
Low48 °F (Aug 29, 3:55 AM)32% (Aug 23, 1:55 PM)29.47 "Hg (Aug 24, 3:55 PM)
Average65 °F77%29.94 "Hg
* Reported Aug 17 1:25 AM — Sep 1 1:55 AM, 's-Hertogenbosch, Weather by CustomWeather, © 2015

Note: Actual official high and low records may vary slightly from our data, if they occured in-between our weather recording intervals... More about our weather records

Advertising

's-Hertogenbosch weather history for previous 24 hours

 ConditionsComfort  
Time TempWeatherWind HumidityBarometerVisibility
1:55 AM
Tue, Sep 1
64 °FPartly cloudy.12 mph88%29.80 "HgN/A
1:25 AM64 °FOvercast.12 mph94%29.80 "HgN/A
12:55 AM64 °FPartly cloudy.12 mph94%29.80 "HgN/A
12:00 AM66 °FLow clouds.12 mph88%29.80 "HgN/A
11:25 PM
Mon, Aug 31
68 °FFog.12 mph88%29.80 "Hg4 mi
10:55 PM68 °FFog.12 mph94%29.80 "Hg3 mi
10:25 PM68 °FFog.12 mph94%29.80 "Hg4 mi
9:55 PM68 °FMostly cloudy.13 mph94%29.80 "HgN/A
9:25 PM68 °FMostly cloudy.12 mph94%29.77 "HgN/A
8:55 PM70 °FFog.8 mph94%29.77 "Hg4 mi
8:25 PM70 °FFog.7 mph94%29.77 "Hg3 mi
7:55 PM70 °FDrizzle. Broken clouds.6 mph94%29.77 "Hg4 mi
7:25 PM70 °FRain showers. Broken clouds.6 mph94%29.80 "Hg2 mi
6:55 PM72 °FThunderstorms. Broken clouds.10 mph88%29.80 "Hg4 mi
6:25 PM73 °FDrizzle. Overcast.7 mph78%29.77 "HgN/A
5:55 PM75 °FBroken clouds.10 mph78%29.77 "HgN/A
5:25 PM81 °FThunderstorms. Mostly cloudy.8 mph62%29.77 "HgN/A
4:55 PM81 °FOvercast.9 mph58%29.74 "HgN/A
4:25 PM82 °FPartly sunny.12 mph55%29.74 "HgN/A
3:55 PM84 °FOvercast.12 mph48%29.74 "HgN/A
3:25 PM86 °FScattered clouds.9 mph49%29.74 "HgN/A
2:55 PM84 °FWarm.9 mph51%29.77 "HgN/A
2:25 PM82 °FWarm.8 mph55%29.77 "HgN/A
1:55 PM82 °FPassing clouds.8 mph55%29.77 "HgN/A
1:25 PM81 °FWarm.7 mph62%29.77 "HgN/A
12:55 PM81 °FWarm.6 mph58%29.80 "HgN/A
12:25 PM79 °FWarm.7 mph65%29.80 "HgN/A
11:55 AM79 °FWarm.6 mph65%29.80 "HgN/A
11:25 AM77 °FWarm.5 mph69%29.83 "HgN/A
10:55 AM75 °FMild.10 mph74%29.80 "HgN/A
10:25 AM75 °FPassing clouds.9 mph78%29.83 "HgN/A
9:55 AM73 °FScattered clouds.10 mph78%29.83 "HgN/A
9:25 AM72 °FMild.7 mph78%29.86 "HgN/A
8:55 AM68 °FMild.6 mph88%29.86 "HgN/A
8:25 AM66 °FMild.5 mph88%29.86 "HgN/A
7:55 AM64 °FPartly sunny.5 mph94%29.86 "HgN/A
7:25 AM64 °FMild.5 mph94%29.89 "HgN/A
6:55 AM63 °FMild.3 mph100%29.89 "HgN/A
6:25 AM64 °FPassing clouds.7 mph94%29.89 "HgN/A
5:55 AM64 °FOvercast.5 mph94%29.89 "HgN/A
5:25 AM66 °FOvercast.6 mph88%29.89 "HgN/A
4:55 AM64 °FMostly cloudy.6 mph94%29.89 "HgN/A
4:25 AM66 °FMild.6 mph88%29.92 "HgN/A
3:55 AM66 °FOvercast.10 mph88%29.92 "HgN/A
3:25 AM66 °FPassing clouds.8 mph94%29.95 "HgN/A
2:59 AM68 °FPartly cloudy.10 mph88%30.01 "HgN/A
2:55 AM68 °FDrizzle. Mostly cloudy.13 mph88%30.01 "HgN/A
2:25 AM68 °FOvercast.3 mph83%29.92 "HgN/A
Weather by CustomWeather, © 2015

See weather overviewHow to use our weather pages